KC8RP Weather Reports


time (UTC)temp
F
wind
direction
speed
knots
gust
knots
rain 1hr
in
rain 24hr
in
rain mn
in
humidity
%
barometer
mb
20260503184602 60 360 4.3 13.9 0.00 0.00 0.00 38 1014.5
20260503183047 59 360 2.6 10.4 0.00 0.00 0.00 39 1014.7
20260503181543 60 360 3.5 10.4 0.00 0.00 0.00 36 1014.8
20260503180040 61 360 6.1 15.6 0.00 0.00 0.00 40 1014.9
20260503174536 60 360 2.6 10.4 0.00 0.00 0.00 40 1015.1
20260503173037 59 360 2.6 14.8 0.00 0.00 0.00 40 1015.2
20260503171547 60 360 5.2 15.6 0.00 0.00 0.00 41 1015.6
20260503081502 33 360 0.0 0.0 0.00 0.00 0.00 85 1016.2
20260503071611 34 360 0.0 0.0 0.00 0.00 0.00 84 1016.2
20260503054558 35 360 0.0 0.0 0.00 0.00 0.00 83 1016.5
20260503053049 36 360 0.0 0.0 0.00 0.00 0.00 83 1016.5
20260503051548 36 360 0.0 0.0 0.00 0.00 0.00 83 1016.5
20260503050048 36 360 0.0 0.0 0.00 0.00 0.00 82 1016.5
20260503044551 36 360 0.0 0.0 0.00 0.00 0.00 81 1016.5
20260503043047 37 360 0.0 0.0 0.00 0.00 0.00 80 1016.5
20260503041540 37 360 0.0 0.0 0.00 0.00 0.00 79 1016.5
20260503040040 38 360 0.0 0.0 0.00 0.00 0.00 79 1016.4
20260503034537 38 360 0.0 0.0 0.00 0.00 0.00 78 1016.4
20260503033036 39 360 0.0 0.0 0.00 0.00 0.00 77 1016.4
20260503031536 39 360 0.0 0.0 0.00 0.00 0.00 77 1016.5
20260503030035 40 360 0.0 0.0 0.00 0.00 0.00 75 1016.4
20260503024534 40 360 0.0 0.9 0.00 0.00 0.00 74 1016.5
20260503023034 41 360 0.0 0.9 0.00 0.00 0.00 72 1016.5
20260503021533 42 360 0.0 0.0 0.00 0.00 0.00 69 1016.4
20260503020035 43 360 0.0 0.0 0.00 0.00 0.00 67 1016.3
20260503014532 44 360 0.0 0.0 0.00 0.00 0.00 64 1016.2
20260503013034 45 360 0.0 0.9 0.00 0.00 0.00 61 1016.1
20260503011538 46 360 0.0 3.5 0.00 0.00 0.00 58 1015.8
20260503010036 47 360 0.9 3.5 0.00 0.00 0.00 57 1015.7
20260503004530 47 360 0.9 5.2 0.00 0.00 0.00 54 1015.6
20260503003030 48 360 1.7 7.0 0.00 0.00 0.00 52 1015.6
20260503001529 49 360 1.7 9.6 0.00 0.00 0.00 51 1015.4
20260503000042 50 360 2.6 8.7 0.00 0.00 0.00 50 1015.2
20260502234527 51 360 3.5 9.6 0.00 0.00 0.00 49 1015.1
20260502233028 51 360 4.3 8.7 0.00 0.00 0.00 47 1015.0
20260502231532 51 360 0.9 7.8 0.00 0.00 0.00 47 1015.0
20260502230025 51 360 3.5 9.6 0.00 0.00 0.00 46 1014.9
20260502224526 52 360 2.6 12.2 0.00 0.00 0.00 42 1014.8
20260502223029 54 360 6.1 13.0 0.00 0.00 0.00 41 1014.7
20260502221522 53 360 1.7 10.4 0.00 0.00 0.00 44 1014.6
20260502220022 53 360 3.5 11.3 0.00 0.00 0.00 44 1014.7
20260502214521 54 360 3.5 10.4 0.00 0.00 0.00 41 1014.6
20260502213020 53 360 4.3 14.8 0.00 0.00 0.00 42 1014.5
20260502211526 54 360 3.5 10.4 0.00 0.00 0.00 44 1014.4
20260502210020 54 360 2.6 7.0 0.00 0.00 0.00 43 1014.4
20260502204521 54 360 2.6 10.4 0.00 0.00 0.00 39 1014.4
20260502203016 55 360 4.3 13.9 0.00 0.00 0.00 43 1014.5
20260502201515 55 360 2.6 8.7 0.00 0.00 0.00 45 1014.6
20260502200015 53 360 3.5 7.8 0.00 0.00 0.00 40 1014.7
20260502194512 54 360 1.7 9.6 0.00 0.00 0.00 42 1014.8
20260502193012 55 360 2.6 9.6 0.00 0.00 0.00 42 1014.8
20260502191510 54 360 6.1 17.4 0.00 0.00 0.00 44 1014.9
20260502190010 54 360 5.2 11.3 0.00 0.00 0.00 45 1015.0